Terug naar catalogus

STARLINK-31215

ActiefCommunicatieVLEO
NORAD 58872·PAYLOAD·🇺🇸 United States

Gelanceerd Jan 29, 2024 vanaf Cape Canaveral Space Force Station

Loading…

Volgende Passages (komende 24 uur)

TLE

VersSource: CelesTrak SupGP

Epoch: Sep 15, 2026, 01:47 UTC

1 58872C 24019V   26258.07479167 -.00008420  00000+0 -30494-3 0  2586
2 58872  42.9997 259.1745 0001289 264.7611 278.4969 15.27584997    15

Volg STARLINK-31215 in realtime met AllMySat

Download on the App Store